﻿測定場所 (Monitoring sites),日付 (Measurement date),時間 (Measurement time),線量率 最大値 (max) μGy/h,線量率 最小値 (min) μGy/h,線量率 平均値 (average) μGy/h,
八王子 (Hachioji),2014-02-16,23:01～24:00,0.0216,0.0179,0.0193,
八王子 (Hachioji),2014-02-16,22:01～23:00,0.0212,0.0177,0.0192,
八王子 (Hachioji),2014-02-16,21:01～22:00,0.0214,0.0179,0.0188,
八王子 (Hachioji),2014-02-16,20:01～21:00,0.0205,0.0180,0.0188,
八王子 (Hachioji),2014-02-16,19:01～20:00,0.0206,0.0177,0.0186,
八王子 (Hachioji),2014-02-16,18:01～19:00,0.0199,0.0178,0.0187,
八王子 (Hachioji),2014-02-16,17:01～18:00,0.0194,0.0174,0.0184,
八王子 (Hachioji),2014-02-16,16:01～17:00,0.0195,0.0166,0.0183,
八王子 (Hachioji),2014-02-16,15:01～16:00,0.0192,0.0170,0.0179,
八王子 (Hachioji),2014-02-16,14:01～15:00,0.0185,0.0166,0.0177,
八王子 (Hachioji),2014-02-16,13:01～14:00,0.0183,0.0167,0.0176,
八王子 (Hachioji),2014-02-16,12:01～13:00,0.0184,0.0164,0.0173,
八王子 (Hachioji),2014-02-16,11:01～12:00,0.0185,0.0162,0.0172,
八王子 (Hachioji),2014-02-16,10:01～11:00,0.0178,0.0160,0.0168,
八王子 (Hachioji),2014-02-16,09:01～10:00,0.0182,0.0160,0.0167,
八王子 (Hachioji),2014-02-16,08:01～09:00,0.0180,0.0157,0.0167,
八王子 (Hachioji),2014-02-16,07:01～08:00,0.0176,0.0158,0.0166,
八王子 (Hachioji),2014-02-16,06:01～07:00,0.0176,0.0153,0.0166,
八王子 (Hachioji),2014-02-16,05:01～06:00,0.0173,0.0154,0.0164,
八王子 (Hachioji),2014-02-16,04:01～05:00,0.0179,0.0155,0.0165,
八王子 (Hachioji),2014-02-16,03:01～04:00,0.0175,0.0156,0.0165,
八王子 (Hachioji),2014-02-16,02:01～03:00,0.0178,0.0154,0.0163,
八王子 (Hachioji),2014-02-16,01:01～02:00,0.0172,0.0155,0.0164,
八王子 (Hachioji),2014-02-16,00:01～01:00,0.0178,0.0151,0.0164,
八王子 (Hachioji),2014-02-15,23:01～24:00,0.0177,0.0155,0.0165,
八王子 (Hachioji),2014-02-15,22:01～23:00,0.0173,0.0154,0.0164,
八王子 (Hachioji),2014-02-15,21:01～22:00,0.0172,0.0151,0.0162,
八王子 (Hachioji),2014-02-15,20:01～21:00,0.0173,0.0152,0.0162,
八王子 (Hachioji),2014-02-15,19:01～20:00,0.0175,0.0154,0.0164,
八王子 (Hachioji),2014-02-15,18:01～19:00,0.0178,0.0153,0.0167,
八王子 (Hachioji),2014-02-15,17:01～18:00,0.0169,0.0149,0.0161,
八王子 (Hachioji),2014-02-15,16:01～17:00,0.0170,0.0145,0.0160,
八王子 (Hachioji),2014-02-15,15:01～16:00,0.0166,0.0144,0.0156,
八王子 (Hachioji),2014-02-15,14:01～15:00,0.0169,0.0146,0.0157,
八王子 (Hachioji),2014-02-15,13:01～14:00,0.0162,0.0137,0.0153,
八王子 (Hachioji),2014-02-15,12:01～13:00,0.0163,0.0141,0.0153,
八王子 (Hachioji),2014-02-15,11:01～12:00,0.0172,0.0147,0.0159,
八王子 (Hachioji),2014-02-15,10:01～11:00,0.0217,0.0161,0.0183,
八王子 (Hachioji),2014-02-15,09:01～10:00,0.0246,0.0200,0.0224,
八王子 (Hachioji),2014-02-15,08:01～09:00,0.0269,0.0230,0.0249,
八王子 (Hachioji),2014-02-15,07:01～08:00,0.0279,0.0229,0.0260,
八王子 (Hachioji),2014-02-15,06:01～07:00,0.0287,0.0241,0.0263,
八王子 (Hachioji),2014-02-15,05:01～06:00,0.0299,0.0260,0.0276,
八王子 (Hachioji),2014-02-15,04:01～05:00,0.0285,0.0250,0.0272,
八王子 (Hachioji),2014-02-15,03:01～04:00,0.0327,0.0272,0.0298,
八王子 (Hachioji),2014-02-15,02:01～03:00,0.0334,0.0291,0.0314,
八王子 (Hachioji),2014-02-15,01:01～02:00,0.0336,0.0278,0.0312,
八王子 (Hachioji),2014-02-15,00:01～01:00,0.0345,0.0288,0.0317,
八王子 (Hachioji),2014-02-14,23:01～24:00,0.0361,0.0304,0.0333,
八王子 (Hachioji),2014-02-14,22:01～23:00,0.0378,0.0330,0.0356,
八王子 (Hachioji),2014-02-14,21:01～22:00,0.0400,0.0343,0.0367,
八王子 (Hachioji),2014-02-14,20:01～21:00,0.0439,0.0353,0.0385,
八王子 (Hachioji),2014-02-14,19:01～20:00,0.0466,0.0379,0.0413,
八王子 (Hachioji),2014-02-14,18:01～19:00,0.0459,0.0382,0.0411,
八王子 (Hachioji),2014-02-14,17:01～18:00,0.0452,0.0400,0.0425,
八王子 (Hachioji),2014-02-14,16:01～17:00,0.0446,0.0370,0.0417,
八王子 (Hachioji),2014-02-14,15:01～16:00,0.0457,0.0372,0.0413,
八王子 (Hachioji),2014-02-14,14:01～15:00,0.0409,0.0360,0.0382,
八王子 (Hachioji),2014-02-14,13:01～14:00,0.0400,0.0347,0.0371,
八王子 (Hachioji),2014-02-14,12:01～13:00,0.0386,0.0345,0.0362,
八王子 (Hachioji),2014-02-14,11:01～12:00,0.0394,0.0343,0.0362,
八王子 (Hachioji),2014-02-14,10:01～11:00,0.0382,0.0351,0.0366,
八王子 (Hachioji),2014-02-14,09:01～10:00,0.0371,0.0328,0.0354,
八王子 (Hachioji),2014-02-14,08:01～09:00,0.0363,0.0332,0.0350,
八王子 (Hachioji),2014-02-14,07:01～08:00,0.0362,0.0322,0.0341,
八王子 (Hachioji),2014-02-14,06:01～07:00,0.0353,0.0302,0.0324,
八王子 (Hachioji),2014-02-14,05:01～06:00,0.0334,0.0288,0.0312,
八王子 (Hachioji),2014-02-14,04:01～05:00,0.0320,0.0281,0.0301,
八王子 (Hachioji),2014-02-14,03:01～04:00,0.0316,0.0274,0.0299,
八王子 (Hachioji),2014-02-14,02:01～03:00,0.0323,0.0281,0.0300,
八王子 (Hachioji),2014-02-14,01:01～02:00,0.0320,0.0275,0.0297,
八王子 (Hachioji),2014-02-14,00:01～01:00,0.0316,0.0279,0.0297,
八王子 (Hachioji),2014-02-13,23:01～24:00,0.0320,0.0275,0.0296,
八王子 (Hachioji),2014-02-13,22:01～23:00,0.0317,0.0277,0.0294,
八王子 (Hachioji),2014-02-13,21:01～22:00,0.0313,0.0275,0.0293,
八王子 (Hachioji),2014-02-13,20:01～21:00,0.0319,0.0277,0.0295,
八王子 (Hachioji),2014-02-13,19:01～20:00,0.0311,0.0271,0.0293,
八王子 (Hachioji),2014-02-13,18:01～19:00,0.0321,0.0278,0.0295,
八王子 (Hachioji),2014-02-13,17:01～18:00,0.0311,0.0277,0.0293,
八王子 (Hachioji),2014-02-13,16:01～17:00,0.0308,0.0268,0.0291,
八王子 (Hachioji),2014-02-13,15:01～16:00,0.0311,0.0267,0.0289,
八王子 (Hachioji),2014-02-13,14:01～15:00,0.0310,0.0274,0.0290,
八王子 (Hachioji),2014-02-13,13:01～14:00,0.0310,0.0273,0.0292,
八王子 (Hachioji),2014-02-13,12:01～13:00,0.0310,0.0272,0.0293,
八王子 (Hachioji),2014-02-13,11:01～12:00,0.0315,0.0274,0.0297,
八王子 (Hachioji),2014-02-13,10:01～11:00,0.0318,0.0283,0.0299,
八王子 (Hachioji),2014-02-13,09:01～10:00,0.0323,0.0284,0.0303,
八王子 (Hachioji),2014-02-13,08:01～09:00,0.0320,0.0282,0.0303,
八王子 (Hachioji),2014-02-13,07:01～08:00,0.0325,0.0283,0.0303,
八王子 (Hachioji),2014-02-13,06:01～07:00,0.0326,0.0286,0.0302,
八王子 (Hachioji),2014-02-13,05:01～06:00,0.0318,0.0278,0.0297,
八王子 (Hachioji),2014-02-13,04:01～05:00,0.0323,0.0273,0.0295,
八王子 (Hachioji),2014-02-13,03:01～04:00,0.0314,0.0278,0.0297,
八王子 (Hachioji),2014-02-13,02:01～03:00,0.0312,0.0277,0.0297,
八王子 (Hachioji),2014-02-13,01:01～02:00,0.0316,0.0279,0.0295,
八王子 (Hachioji),2014-02-13,00:01～01:00,0.0327,0.0277,0.0297,
八王子 (Hachioji),2014-02-12,23:01～24:00,0.0315,0.0277,0.0296,
八王子 (Hachioji),2014-02-12,22:01～23:00,0.0311,0.0272,0.0289,
八王子 (Hachioji),2014-02-12,21:01～22:00,0.0305,0.0276,0.0292,
八王子 (Hachioji),2014-02-12,20:01～21:00,0.0314,0.0270,0.0290,
八王子 (Hachioji),2014-02-12,19:01～20:00,0.0310,0.0261,0.0284,
八王子 (Hachioji),2014-02-12,18:01～19:00,0.0302,0.0259,0.0284,
八王子 (Hachioji),2014-02-12,17:01～18:00,0.0300,0.0267,0.0285,
八王子 (Hachioji),2014-02-12,16:01～17:00,0.0300,0.0267,0.0282,
八王子 (Hachioji),2014-02-12,15:01～16:00,0.0299,0.0262,0.0281,
八王子 (Hachioji),2014-02-12,14:01～15:00,0.0295,0.0257,0.0277,
八王子 (Hachioji),2014-02-12,13:01～14:00,0.0299,0.0257,0.0276,
八王子 (Hachioji),2014-02-12,12:01～13:00,0.0295,0.0257,0.0276,
八王子 (Hachioji),2014-02-12,11:01～12:00,0.0296,0.0261,0.0276,
八王子 (Hachioji),2014-02-12,10:01～11:00,0.0289,0.0260,0.0274,
八王子 (Hachioji),2014-02-12,09:01～10:00,0.0285,0.0253,0.0273,
八王子 (Hachioji),2014-02-12,08:01～09:00,0.0302,0.0245,0.0274,
八王子 (Hachioji),2014-02-12,07:01～08:00,0.0288,0.0258,0.0271,
八王子 (Hachioji),2014-02-12,06:01～07:00,0.0294,0.0255,0.0273,
八王子 (Hachioji),2014-02-12,05:01～06:00,0.0301,0.0249,0.0272,
八王子 (Hachioji),2014-02-12,04:01～05:00,0.0287,0.0253,0.0271,
八王子 (Hachioji),2014-02-12,03:01～04:00,0.0285,0.0250,0.0270,
八王子 (Hachioji),2014-02-12,02:01～03:00,0.0284,0.0249,0.0267,
八王子 (Hachioji),2014-02-12,01:01～02:00,0.0287,0.0250,0.0268,
八王子 (Hachioji),2014-02-12,00:01～01:00,0.0281,0.0249,0.0265,
八王子 (Hachioji),2014-02-11,23:01～24:00,0.0287,0.0250,0.0265,
八王子 (Hachioji),2014-02-11,22:01～23:00,0.0281,0.0245,0.0265,
八王子 (Hachioji),2014-02-11,21:01～22:00,0.0284,0.0246,0.0263,
八王子 (Hachioji),2014-02-11,20:01～21:00,0.0281,0.0250,0.0266,
八王子 (Hachioji),2014-02-11,19:01～20:00,0.0281,0.0238,0.0264,
八王子 (Hachioji),2014-02-11,18:01～19:00,0.0278,0.0241,0.0262,
八王子 (Hachioji),2014-02-11,17:01～18:00,0.0284,0.0237,0.0263,
八王子 (Hachioji),2014-02-11,16:01～17:00,0.0281,0.0243,0.0265,
八王子 (Hachioji),2014-02-11,15:01～16:00,0.0289,0.0241,0.0263,
八王子 (Hachioji),2014-02-11,14:01～15:00,0.0288,0.0243,0.0264,
八王子 (Hachioji),2014-02-11,13:01～14:00,0.0282,0.0242,0.0262,
八王子 (Hachioji),2014-02-11,12:01～13:00,0.0281,0.0234,0.0260,
八王子 (Hachioji),2014-02-11,11:01～12:00,0.0278,0.0238,0.0259,
八王子 (Hachioji),2014-02-11,10:01～11:00,0.0273,0.0234,0.0257,
八王子 (Hachioji),2014-02-11,09:01～10:00,0.0271,0.0242,0.0256,
八王子 (Hachioji),2014-02-11,08:01～09:00,0.0277,0.0240,0.0258,
八王子 (Hachioji),2014-02-11,07:01～08:00,0.0283,0.0240,0.0262,
八王子 (Hachioji),2014-02-11,06:01～07:00,0.0282,0.0242,0.0259,
八王子 (Hachioji),2014-02-11,05:01～06:00,0.0276,0.0246,0.0260,
八王子 (Hachioji),2014-02-11,04:01～05:00,0.0277,0.0240,0.0258,
八王子 (Hachioji),2014-02-11,03:01～04:00,0.0283,0.0241,0.0259,
八王子 (Hachioji),2014-02-11,02:01～03:00,0.0290,0.0238,0.0257,
八王子 (Hachioji),2014-02-11,01:01～02:00,0.0273,0.0241,0.0256,
八王子 (Hachioji),2014-02-11,00:01～01:00,0.0271,0.0234,0.0255,
八王子 (Hachioji),2014-02-10,23:01～24:00,0.0282,0.0241,0.0260,
八王子 (Hachioji),2014-02-10,22:01～23:00,0.0277,0.0240,0.0259,
八王子 (Hachioji),2014-02-10,21:01～22:00,0.0274,0.0235,0.0259,
八王子 (Hachioji),2014-02-10,20:01～21:00,0.0273,0.0236,0.0256,
八王子 (Hachioji),2014-02-10,19:01～20:00,0.0273,0.0232,0.0256,
八王子 (Hachioji),2014-02-10,18:01～19:00,0.0266,0.0236,0.0251,
八王子 (Hachioji),2014-02-10,17:01～18:00,0.0270,0.0230,0.0250,
八王子 (Hachioji),2014-02-10,16:01～17:00,0.0269,0.0229,0.0250,
八王子 (Hachioji),2014-02-10,15:01～16:00,0.0267,0.0222,0.0247,
八王子 (Hachioji),2014-02-10,14:01～15:00,0.0260,0.0225,0.0244,
八王子 (Hachioji),2014-02-10,13:01～14:00,0.0260,0.0232,0.0244,
八王子 (Hachioji),2014-02-10,12:01～13:00,0.0258,0.0229,0.0245,
八王子 (Hachioji),2014-02-10,11:01～12:00,0.0265,0.0232,0.0244,
八王子 (Hachioji),2014-02-10,10:01～11:00,0.0266,0.0224,0.0244,
八王子 (Hachioji),2014-02-10,09:01～10:00,0.0264,0.0231,0.0245,
八王子 (Hachioji),2014-02-10,08:01～09:00,0.0265,0.0227,0.0248,
八王子 (Hachioji),2014-02-10,07:01～08:00,0.0264,0.0229,0.0245,
八王子 (Hachioji),2014-02-10,06:01～07:00,0.0260,0.0226,0.0243,
八王子 (Hachioji),2014-02-10,05:01～06:00,0.0263,0.0230,0.0244,
八王子 (Hachioji),2014-02-10,04:01～05:00,0.0263,0.0220,0.0243,
八王子 (Hachioji),2014-02-10,03:01～04:00,0.0258,0.0226,0.0240,
八王子 (Hachioji),2014-02-10,02:01～03:00,0.0261,0.0225,0.0241,
八王子 (Hachioji),2014-02-10,01:01～02:00,0.0261,0.0216,0.0238,
八王子 (Hachioji),2014-02-10,00:01～01:00,0.0249,0.0215,0.0235,
